Time,TemperatureF,DewpointF,PressureIn,WindDirection,WindDirectionDegrees,WindSpeedMPH,WindSpeedGustMPH,Humidity,HourlyPrecipIn,Conditions,Clouds,dailyrainin,SoftwareType,DateUTC
2013-06-30 00:02:00,68.0,66.0,-100.00,North,8,1.0,3.0,92,0.06,,,0.10,,2013-06-30 04:02:00,
2013-06-30 00:12:00,68.0,66.0,-100.00,North,8,1.0,3.0,92,0.06,,,0.10,,2013-06-30 04:12:00,
2013-06-30 00:33:00,67.0,66.0,-100.00,NNW,337,2.0,4.0,94,0.00,,,0.10,,2013-06-30 04:33:00,
2013-06-30 00:43:00,67.0,66.0,-100.00,NNW,337,2.0,4.0,94,0.00,,,0.10,,2013-06-30 04:43:00,
2013-06-30 00:53:00,67.0,65.0,-100.00,North,1,1.0,2.0,94,0.00,,,0.10,,2013-06-30 04:53:00,
2013-06-30 01:02:00,67.0,65.0,-100.00,East,83,1.0,3.0,93,0.00,,,0.10,,2013-06-30 05:02:00,
2013-06-30 01:12:00,67.0,65.0,-100.00,East,83,1.0,3.0,93,0.00,,,0.10,,2013-06-30 05:12:00,
2013-06-30 01:34:00,67.0,65.0,-100.00,NNW,333,2.0,4.0,94,0.00,,,0.10,,2013-06-30 05:34:00,
2013-06-30 01:43:00,67.0,65.0,-100.00,NNW,333,2.0,4.0,94,0.00,,,0.10,,2013-06-30 05:43:00,
2013-06-30 01:53:00,67.0,65.0,-100.00,NNW,346,2.0,4.0,94,0.00,,,0.10,,2013-06-30 05:53:00,
2013-06-30 02:02:00,66.0,65.0,-100.00,NW,316,4.0,5.0,96,0.00,,,0.10,,2013-06-30 06:02:00,
2013-06-30 02:12:00,66.0,65.0,-100.00,NW,316,4.0,5.0,96,0.00,,,0.10,,2013-06-30 06:12:00,
2013-06-30 02:34:00,66.0,65.0,-100.00,NNW,343,2.0,4.0,96,0.00,,,0.10,,2013-06-30 06:34:00,
2013-06-30 02:43:00,66.0,65.0,-100.00,NNW,346,1.0,3.0,96,0.00,,,0.10,,2013-06-30 06:43:00,
2013-06-30 02:53:00,66.0,65.0,-100.00,North,352,0.0,1.0,96,0.00,,,0.10,,2013-06-30 06:53:00,
2013-06-30 03:02:00,66.0,65.0,-100.00,North,8,0.0,2.0,93,0.00,,,0.10,,2013-06-30 07:02:00,
2013-06-30 03:12:00,66.0,65.0,-100.00,North,8,0.0,2.0,93,0.00,,,0.10,,2013-06-30 07:12:00,
2013-06-30 03:33:00,67.0,65.0,-100.00,NW,325,2.0,5.0,95,0.00,,,0.10,,2013-06-30 07:33:00,
2013-06-30 03:44:00,67.0,65.0,-100.00,NW,325,2.0,5.0,95,0.00,,,0.10,,2013-06-30 07:44:00,
2013-06-30 03:53:00,66.0,65.0,-100.00,NNW,335,2.0,5.0,96,0.00,,,0.10,,2013-06-30 07:53:00,
2013-06-30 04:02:00,66.0,64.0,-100.00,North,352,0.0,2.0,93,0.00,,,0.10,,2013-06-30 08:02:00,
2013-06-30 04:12:00,66.0,64.0,-100.00,North,352,0.0,2.0,93,0.00,,,0.10,,2013-06-30 08:12:00,
2013-06-30 04:34:00,66.0,64.0,-100.00,NNW,344,1.0,2.0,93,0.00,,,0.10,,2013-06-30 08:34:00,
2013-06-30 04:42:00,66.0,64.0,-100.00,NNW,344,1.0,2.0,93,0.00,,,0.10,,2013-06-30 08:42:00,
2013-06-30 04:53:00,66.0,64.0,-100.00,NNW,328,2.0,5.0,95,0.00,,,0.10,,2013-06-30 08:53:00,
2013-06-30 05:02:00,66.0,64.0,-100.00,NNW,333,2.0,4.0,95,0.00,,,0.10,,2013-06-30 09:02:00,
2013-06-30 05:12:00,66.0,64.0,-100.00,NNW,333,2.0,4.0,95,0.00,,,0.10,,2013-06-30 09:12:00,
2013-06-30 05:34:00,65.0,64.0,-100.00,NNW,328,1.0,4.0,96,0.00,,,0.10,,2013-06-30 09:34:00,
2013-06-30 05:43:00,65.0,64.0,-100.00,NNW,328,1.0,4.0,96,0.00,,,0.10,,2013-06-30 09:43:00,
2013-06-30 05:53:00,65.0,64.0,-100.00,NW,323,1.0,3.0,95,0.00,,,0.10,,2013-06-30 09:53:00,
2013-06-30 06:02:00,65.0,64.0,-100.00,NW,325,0.0,0.0,95,0.00,,,0.10,,2013-06-30 10:02:00,
2013-06-30 06:11:00,65.0,64.0,-100.00,NW,325,0.0,0.0,95,0.00,,,0.10,,2013-06-30 10:11:00,
2013-06-30 06:33:00,65.0,64.0,-100.00,SE,138,2.0,3.0,95,0.00,,,0.10,,2013-06-30 10:33:00,
2013-06-30 06:42:00,65.0,64.0,-100.00,SE,138,2.0,3.0,95,0.00,,,0.10,,2013-06-30 10:42:00,
2013-06-30 06:53:00,66.0,64.0,-100.00,SE,133,1.0,2.0,95,0.00,,,0.10,,2013-06-30 10:53:00,
2013-06-30 07:02:00,66.0,64.0,-100.00,SE,131,2.0,3.0,94,0.00,,,0.10,,2013-06-30 11:02:00,
2013-06-30 07:11:00,66.0,64.0,-100.00,SE,131,2.0,3.0,94,0.00,,,0.10,,2013-06-30 11:11:00,
2013-06-30 07:33:00,66.0,65.0,-100.00,East,86,0.0,2.0,94,0.00,,,0.10,,2013-06-30 11:33:00,
2013-06-30 07:43:00,66.0,65.0,-100.00,East,86,0.0,2.0,94,0.00,,,0.10,,2013-06-30 11:43:00,
2013-06-30 07:53:00,67.0,65.0,-100.00,East,86,0.0,0.0,93,0.00,,,0.10,,2013-06-30 11:53:00,
2013-06-30 08:02:00,68.0,65.0,-100.00,East,86,0.0,0.0,91,0.00,,,0.10,,2013-06-30 12:02:00,
2013-06-30 08:11:00,68.0,65.0,-100.00,East,86,0.0,0.0,91,0.00,,,0.10,,2013-06-30 12:11:00,
2013-06-30 08:33:00,68.0,65.0,-100.00,NW,326,1.0,4.0,92,0.00,,,0.10,,2013-06-30 12:33:00,
2013-06-30 08:43:00,68.0,65.0,-100.00,NW,326,1.0,4.0,92,0.00,,,0.10,,2013-06-30 12:43:00,
2013-06-30 08:52:00,70.0,66.0,-100.00,NNE,17,1.0,5.0,89,0.00,,,0.10,,2013-06-30 12:52:00,
2013-06-30 09:02:00,71.0,67.0,-100.00,SSE,147,4.0,6.0,88,0.00,,,0.10,,2013-06-30 13:02:00,
2013-06-30 09:12:00,71.0,67.0,-100.00,SSE,147,4.0,6.0,88,0.00,,,0.10,,2013-06-30 13:12:00,
2013-06-30 09:34:00,72.0,67.0,-100.00,SE,141,4.0,5.0,84,0.00,,,0.10,,2013-06-30 13:34:00,
2013-06-30 09:44:00,72.0,67.0,-100.00,SE,141,4.0,5.0,84,0.00,,,0.10,,2013-06-30 13:44:00,
2013-06-30 09:53:00,73.0,67.0,-100.00,SSE,148,6.0,10.0,83,0.00,,,0.10,,2013-06-30 13:53:00,
2013-06-30 10:02:00,73.0,67.0,-100.00,SSE,148,6.0,10.0,83,0.00,,,0.10,,2013-06-30 14:02:00,
2013-06-30 10:22:00,74.0,67.0,-100.00,SSE,154,3.0,5.0,80,0.00,,,0.10,,2013-06-30 14:22:00,
2013-06-30 10:33:00,74.0,67.0,-100.00,SSE,154,3.0,5.0,80,0.00,,,0.10,,2013-06-30 14:33:00,
2013-06-30 10:44:00,74.0,68.0,-100.00,SSE,148,4.0,6.0,82,0.00,,,0.10,,2013-06-30 14:44:00,
2013-06-30 10:52:00,74.0,68.0,-100.00,SSE,150,6.0,11.0,82,0.00,,,0.10,,2013-06-30 14:52:00,
2013-06-30 11:02:00,75.0,68.0,-100.00,SSE,150,6.0,12.0,78,0.00,,,0.10,,2013-06-30 15:02:00,
2013-06-30 11:12:00,75.0,68.0,-100.00,SSE,150,6.0,12.0,78,0.00,,,0.10,,2013-06-30 15:12:00,
2013-06-30 11:34:00,77.0,68.0,-100.00,SSE,147,7.0,11.0,75,0.00,,,0.10,,2013-06-30 15:34:00,
2013-06-30 11:44:00,77.0,68.0,-100.00,SSE,147,7.0,11.0,75,0.00,,,0.10,,2013-06-30 15:44:00,
2013-06-30 11:53:00,78.0,69.0,-100.00,SSE,150,7.0,11.0,74,0.00,,,0.10,,2013-06-30 15:53:00,
2013-06-30 12:01:00,78.0,69.0,-100.00,SSE,147,5.0,10.0,75,0.00,,,0.10,,2013-06-30 16:01:00,
2013-06-30 12:11:00,78.0,69.0,-100.00,SSE,147,5.0,10.0,75,0.00,,,0.10,,2013-06-30 16:11:00,
2013-06-30 12:34:00,80.0,69.0,-100.00,SE,143,7.0,11.0,68,0.00,,,0.10,,2013-06-30 16:34:00,
2013-06-30 12:44:00,80.0,69.0,-100.00,SE,143,7.0,11.0,68,0.00,,,0.10,,2013-06-30 16:44:00,
2013-06-30 12:53:00,80.0,69.0,-100.00,SE,140,8.0,12.0,70,0.00,,,0.10,,2013-06-30 16:53:00,
2013-06-30 13:02:00,80.0,71.0,-100.00,SE,145,10.0,14.0,72,0.00,,,0.10,,2013-06-30 17:02:00,
2013-06-30 13:12:00,80.0,71.0,-100.00,SE,145,10.0,14.0,72,0.00,,,0.10,,2013-06-30 17:12:00,
2013-06-30 13:34:00,79.0,69.0,-100.00,SE,144,10.0,16.0,72,0.00,,,0.10,,2013-06-30 17:34:00,
2013-06-30 13:43:00,79.0,69.0,-100.00,SE,144,10.0,16.0,72,0.00,,,0.10,,2013-06-30 17:43:00,
2013-06-30 13:53:00,81.0,69.0,-100.00,SE,140,9.0,14.0,68,0.00,,,0.10,,2013-06-30 17:53:00,
2013-06-30 14:02:00,81.0,70.0,-100.00,SE,141,8.0,13.0,69,0.00,,,0.10,,2013-06-30 18:02:00,
2013-06-30 14:12:00,81.0,70.0,-100.00,SE,141,8.0,13.0,69,0.00,,,0.10,,2013-06-30 18:12:00,
2013-06-30 14:34:00,82.0,69.0,-100.00,SE,144,9.0,16.0,66,0.00,,,0.10,,2013-06-30 18:34:00,
2013-06-30 14:43:00,82.0,69.0,-100.00,SE,144,9.0,16.0,66,0.00,,,0.10,,2013-06-30 18:43:00,
2013-06-30 14:53:00,81.0,70.0,-100.00,SE,143,7.0,14.0,69,0.00,,,0.10,,2013-06-30 18:53:00,
2013-06-30 15:01:00,82.0,69.0,-100.00,SE,141,10.0,15.0,65,0.00,,,0.10,,2013-06-30 19:01:00,
2013-06-30 15:12:00,82.0,69.0,-100.00,SE,141,10.0,15.0,65,0.00,,,0.10,,2013-06-30 19:12:00,
2013-06-30 15:33:00,82.0,69.0,-100.00,SSE,147,9.0,14.0,65,0.00,,,0.10,,2013-06-30 19:33:00,
2013-06-30 15:43:00,82.0,69.0,-100.00,SSE,147,9.0,14.0,65,0.00,,,0.10,,2013-06-30 19:43:00,
2013-06-30 15:53:00,83.0,70.0,-100.00,SE,141,11.0,17.0,64,0.00,,,0.10,,2013-06-30 19:53:00,
2013-06-30 16:02:00,83.0,70.0,-100.00,SE,143,10.0,17.0,64,0.00,,,0.10,,2013-06-30 20:02:00,
2013-06-30 16:12:00,83.0,70.0,-100.00,SE,143,10.0,17.0,64,0.00,,,0.10,,2013-06-30 20:12:00,
2013-06-30 16:34:00,79.0,70.0,-100.00,SE,144,9.0,14.0,74,0.00,,,0.10,,2013-06-30 20:34:00,
2013-06-30 16:42:00,79.0,70.0,-100.00,SE,144,9.0,14.0,74,0.00,,,0.10,,2013-06-30 20:42:00,
2013-06-30 16:52:00,81.0,72.0,-100.00,SSE,148,9.0,13.0,74,0.00,,,0.10,,2013-06-30 20:52:00,
2013-06-30 17:01:00,81.0,71.0,-100.00,SE,141,12.0,19.0,71,0.00,,,0.10,,2013-06-30 21:01:00,
2013-06-30 17:11:00,81.0,71.0,-100.00,SE,141,12.0,19.0,71,0.00,,,0.10,,2013-06-30 21:11:00,
2013-06-30 17:34:00,80.0,71.0,-100.00,SE,138,13.0,20.0,75,0.00,,,0.10,,2013-06-30 21:34:00,
2013-06-30 17:43:00,80.0,71.0,-100.00,SE,138,13.0,20.0,75,0.00,,,0.10,,2013-06-30 21:43:00,
2013-06-30 17:53:00,79.0,71.0,-100.00,SE,143,12.0,18.0,77,0.00,,,0.10,,2013-06-30 21:53:00,
2013-06-30 18:01:00,79.0,71.0,-100.00,SE,141,12.0,18.0,77,0.00,,,0.10,,2013-06-30 22:01:00,
2013-06-30 18:11:00,79.0,71.0,-100.00,SE,141,12.0,18.0,77,0.00,,,0.10,,2013-06-30 22:11:00,
2013-06-30 18:34:00,78.0,68.0,-100.00,SE,144,12.0,17.0,71,0.00,,,0.10,,2013-06-30 22:34:00,
2013-06-30 18:43:00,78.0,68.0,-100.00,SE,144,12.0,17.0,71,0.00,,,0.10,,2013-06-30 22:43:00,
2013-06-30 18:53:00,79.0,69.0,-100.00,SE,141,14.0,19.0,71,0.00,,,0.10,,2013-06-30 22:53:00,
2013-06-30 19:02:00,79.0,69.0,-100.00,SE,143,11.0,16.0,72,0.00,,,0.10,,2013-06-30 23:02:00,
2013-06-30 19:11:00,79.0,69.0,-100.00,SE,143,11.0,16.0,72,0.00,,,0.10,,2013-06-30 23:11:00,
2013-06-30 19:33:00,78.0,68.0,-100.00,SE,137,13.0,19.0,71,0.00,,,0.10,,2013-06-30 23:33:00,
2013-06-30 19:44:00,78.0,68.0,-100.00,SE,137,13.0,19.0,71,0.00,,,0.10,,2013-06-30 23:44:00,
2013-06-30 19:53:00,77.0,68.0,-100.00,SE,134,13.0,18.0,72,0.00,,,0.10,,2013-06-30 23:53:00,
2013-06-30 20:01:00,77.0,68.0,-100.00,SE,134,12.0,17.0,74,0.00,,,0.10,,2013-07-01 00:01:00,
2013-06-30 20:11:00,77.0,68.0,-100.00,SE,134,12.0,17.0,74,0.00,,,0.10,,2013-07-01 00:11:00,
2013-06-30 20:33:00,76.0,68.0,-100.00,SE,136,10.0,15.0,75,0.00,,,0.07,,2013-07-01 00:33:00,
2013-06-30 20:42:00,76.0,68.0,-100.00,SE,136,10.0,15.0,75,0.00,,,0.07,,2013-07-01 00:42:00,
2013-06-30 20:52:00,76.0,68.0,-100.00,SE,133,9.0,13.0,77,0.00,,,0.07,,2013-07-01 00:52:00,
2013-06-30 21:01:00,76.0,68.0,-100.00,SE,134,12.0,18.0,77,0.00,,,0.07,,2013-07-01 01:01:00,
2013-06-30 21:12:00,76.0,68.0,-100.00,SE,134,12.0,18.0,77,0.00,,,0.07,,2013-07-01 01:12:00,
2013-06-30 21:33:00,76.0,68.0,-100.00,SE,134,13.0,18.0,77,0.00,,,0.07,,2013-07-01 01:33:00,
2013-06-30 21:43:00,76.0,68.0,-100.00,SE,134,13.0,18.0,77,0.00,,,0.07,,2013-07-01 01:43:00,
2013-06-30 21:52:00,75.0,67.0,-100.00,SE,134,12.0,17.0,76,0.00,,,0.07,,2013-07-01 01:52:00,
2013-06-30 22:02:00,75.0,67.0,-100.00,SE,133,13.0,20.0,75,0.00,,,0.06,,2013-07-01 02:02:00,
2013-06-30 22:12:00,75.0,67.0,-100.00,SE,133,13.0,20.0,75,0.00,,,0.06,,2013-07-01 02:12:00,
2013-06-30 22:33:00,74.0,66.0,-100.00,SE,134,10.0,15.0,77,0.00,,,0.06,,2013-07-01 02:33:00,
2013-06-30 22:44:00,74.0,66.0,-100.00,SE,134,10.0,15.0,77,0.00,,,0.06,,2013-07-01 02:44:00,
2013-06-30 22:54:00,74.0,67.0,-100.00,SE,130,8.0,13.0,78,0.00,,,0.06,,2013-07-01 02:54:00,
2013-06-30 23:01:00,73.0,66.0,-100.00,SE,130,6.0,9.0,79,0.00,,,0.06,,2013-07-01 03:01:00,
2013-06-30 23:12:00,73.0,66.0,-100.00,SE,130,6.0,9.0,79,0.00,,,0.06,,2013-07-01 03:12:00,
2013-06-30 23:33:00,72.0,66.0,-100.00,East,97,1.0,4.0,81,0.00,,,0.06,,2013-07-01 03:33:00,
2013-06-30 23:43:00,72.0,66.0,-100.00,East,97,1.0,4.0,81,0.00,,,0.06,,2013-07-01 03:43:00,
2013-06-30 23:52:00,71.0,66.0,-100.00,SE,126,3.0,6.0,85,0.00,,,0.06,,2013-07-01 03:52:00,